This is the latest recevied weather packets stored in our database for station/object IN3XSV. If no packets are shown the sender has not sent any weather packets the latest 1 day(s).
| Time | Temp. | Humidity | Pressure | Rain* | Wind** | Luminosity | Snow |
|---|---|---|---|---|---|---|---|
| 1778056119 | 11.67° C | 78% | 1004 hPa | 0 mm | - | - | - |
| 1778055819 | 11.11° C | 78% | 1004 hPa | 0 mm | - | - | - |
| 1778055519 | 10.56° C | 77% | 1004 hPa | 0.51 mm | - | - | - |
| 1778054919 | 10.56° C | 77% | 1004.3 hPa | 0.51 mm | - | - | - |
| 1778054619 | 10° C | 76% | 1004.4 hPa | 0.51 mm | - | - | - |
| 1778054319 | 10° C | 76% | 1004.2 hPa | 1.02 mm | - | - | - |
| 1778054019 | 10° C | 76% | 1004.3 hPa | 1.02 mm | - | - | - |
| 1778053719 | 10° C | 76% | 1004.4 hPa | 1.02 mm | - | - | - |
| 1778051919 | 8.89° C | 77% | 1004.6 hPa | 1.02 mm | - | - | - |
| 1778051619 | 8.89° C | 77% | 1004.6 hPa | 1.02 mm | - | - | - |
| 1778050719 | 8.89° C | 77% | 1004.7 hPa | 0.51 mm | - | - | - |
| 1778041419 | 8.89° C | 78% | 1004.2 hPa | 0 mm | - | - | - |
| 1778040519 | 8.89° C | 77% | 1004.4 hPa | 0 mm | - | - | - |
| 1778040220 | 8.33° C | 77% | 1004.4 hPa | 0 mm | - | - | - |
| 1778039620 | 8.33° C | 77% | 1004.8 hPa | 0 mm | - | - | - |
| 1778039020 | 8.33° C | 77% | 1004.7 hPa | 0 mm | - | - | - |
| 1778038720 | 8.33° C | 77% | 1004.8 hPa | 0 mm | - | - | - |
| 1778038420 | 8.33° C | 77% | 1005 hPa | 0 mm | - | - | - |
| 1778037820 | 7.78° C | 76% | 1005 hPa | 0 mm | - | - | - |
| 1778037520 | 7.78° C | 77% | 1005.1 hPa | 0 mm | - | - | - |
| 1778037220 | 8.33° C | 77% | 1005 hPa | 0 mm | - | - | - |
| 1778036920 | 8.33° C | 77% | 1005.1 hPa | 0 mm | - | - | - |
| 1778036620 | 8.33° C | 77% | 1005.3 hPa | 0 mm | - | - | - |
| 1778036320 | 8.33° C | 77% | 1005.4 hPa | 0 mm | - | - | - |
| 1778036020 | 8.33° C | 77% | 1005.3 hPa | 0 mm | - | - | - |
* Rain latest hour (hover to see other rain measurements)
** Current wind speed in m/s (hover to see current wind gust speed)